PBO Station Position Time Series. Reference Frame : NAM14
Format Version,1.1.0
4-character ID,CMBB
Station name,Columbia_College
Begin Date, 1996-01-01
End Date, 2019-10-07
Release Date, 2019-10-08
Reference position, 38.0341761424 North Latitude, -120.3860408756 East Longitude, 695.60292 meters elevation,
Date, North (mm), East (mm), Vertical (mm), North Std. Deviation (mm), East Std. Deviation (mm),              Vertical Std. Deviation (mm), Quality,
1996-01-01,0.00, 0.00, 0.00, 3.87, 3.36, 13.77, repro,
1996-01-02,7.39, -4.20, 12.14, 3.78, 3.31, 13.51, repro,
1996-01-03,-0.52, -5.23, 5.16, 3.79, 3.38, 13.72, repro,
1996-01-04,-1.47, -0.61, 16.48, 3.31, 2.90, 11.96, repro,
1996-01-05,-1.50, -3.76, -3.41, 3.72, 3.28, 13.24, repro,
1996-01-06,-3.28, -2.41, 5.35, 3.51, 2.96, 12.44, repro,
1996-01-07,-0.38, -1.64, 13.21, 3.57, 3.18, 12.93, repro,
1996-01-08,8.38, -2.40, 24.14, 3.70, 3.26, 13.28, repro,
1996-01-09,0.04, 0.02, 17.32, 3.57, 3.08, 13.06, repro,
1996-01-10,0.64, 0.29, 21.35, 3.67, 3.27, 13.20, repro,
1996-01-11,0.71, -4.27, -4.05, 3.76, 3.27, 13.48, repro,
1996-01-12,2.45, -2.81, 16.92, 3.72, 3.22, 12.90, repro,
1996-01-13,2.27, -1.59, 14.84, 3.66, 3.17, 12.80, repro,
1996-01-14,2.51, 0.02, 29.93, 3.61, 3.16, 12.51, repro,
1996-01-15,2.39, 1.41, 17.91, 3.55, 3.12, 12.41, repro,
1996-01-16,1.51, 1.48, 21.70, 3.70, 3.19, 13.08, repro,
1996-01-17,-4.10, -2.84, 20.19, 3.73, 3.39, 13.64, repro,
1996-01-18,-2.01, -0.51, 24.49, 3.37, 3.07, 12.30, repro,
1996-01-19,1.15, 0.41, 23.89, 3.54, 3.22, 12.88, repro,
1996-01-20,-1.41, -3.81, -10.31, 3.47, 3.14, 12.53, repro,
1996-01-21,3.11, 0.32, 41.79, 3.48, 3.24, 12.89, repro,
1996-01-22,1.42, 1.35, 27.80, 3.57, 3.28, 12.66, repro,
1996-01-23,-1.07, 0.06, 21.80, 3.68, 3.31, 13.02, repro,
1996-01-24,1.69, -3.69, -13.58, 3.99, 3.42, 14.23, repro,
1996-01-25,3.34, 2.81, 27.24, 3.62, 3.39, 13.89, repro,
1996-01-26,2.54, 1.53, 33.08, 3.60, 3.41, 13.72, repro,
1996-01-27,0.43, 0.42, 24.82, 3.92, 3.65, 15.08, repro,
1996-01-28,0.09, 5.08, 18.91, 4.06, 3.71, 15.37, repro,
1996-01-29,-0.06, 2.51, 26.55, 2.78, 2.50, 9.97, repro,
1996-01-30,14.32, 17.49, -4.29, 3.71, 3.50, 15.43, repro,
1996-01-31,2.06, 6.43, 13.77, 2.87, 2.60, 10.42, repro,
1996-02-01,-1.79, 3.05, 11.58, 2.88, 2.51, 10.30, repro,
1996-02-02,2.97, 3.28, 14.47, 2.77, 2.42, 9.86, repro,
1996-02-03,0.99, 5.84, 28.63, 2.84, 2.58, 10.34, repro,
1996-02-04,-0.14, 1.98, 8.17, 2.89, 2.55, 10.27, repro,
1996-02-06,5.14, 0.84, 9.57, 2.78, 2.45, 10.15, repro,
1996-02-07,2.68, 0.40, 11.87, 2.90, 2.53, 10.30, repro,
1996-02-08,-0.59, 1.27, 17.42, 2.71, 2.37, 9.68, repro,
1996-02-09,2.96, 1.62, 20.53, 3.75, 3.54, 14.62, repro,
1996-02-10,1.85, -0.34, 14.65, 2.72, 2.36, 9.67, repro,
1996-02-11,6.86, 2.57, 10.71, 3.47, 3.12, 13.19, repro,
1996-02-12,5.01, 0.79, -2.23, 3.92, 3.84, 15.51, repro,
1996-02-13,1.37, -0.09, 0.61, 3.08, 2.64, 10.62, repro,
1996-02-14,1.20, 0.16, 4.29, 3.01, 2.61, 10.52, repro,
1996-02-15,1.16, 0.47, 12.88, 2.81, 2.41, 9.82, repro,
1996-02-16,0.55, 2.03, 13.18, 3.02, 2.69, 10.52, repro,
1996-02-17,-1.04, -0.56, 0.72, 2.82, 2.44, 9.88, repro,
1996-02-18,3.15, -0.69, 9.13, 3.07, 2.74, 10.66, repro,
1996-02-19,3.44, -1.99, -12.65, 3.31, 2.95, 12.94, repro,
1996-02-20,3.36, -4.66, -13.46, 3.14, 2.80, 11.41, repro,
1996-02-21,4.25, -4.61, -22.66, 3.13, 2.85, 11.50, repro,
1996-02-22,6.90, -7.27, -42.97, 3.79, 3.34, 14.70, repro,
1996-02-23,-0.91, -1.76, -7.21, 3.15, 2.77, 11.30, repro,
1996-02-24,-2.79, -2.37, -18.07, 3.29, 2.93, 12.71, repro,
1996-02-25,6.83, -5.41, -36.32, 3.42, 3.17, 13.53, repro,
1996-02-26,7.14, -0.81, 2.40, 3.20, 2.98, 12.40, repro,
1996-02-27,3.14, -2.26, -5.05, 3.15, 2.94, 11.86, repro,
1996-02-28,5.92, -0.40, -3.65, 3.97, 3.66, 15.82, repro,
1996-02-29,5.52, -1.62, 7.75, 3.36, 3.04, 13.54, repro,
1996-03-01,4.39, -0.34, 11.29, 3.51, 3.08, 14.35, repro,
1996-03-02,5.61, -0.64, 13.30, 3.36, 3.06, 12.44, repro,
1996-03-03,2.65, 5.05, 27.17, 2.95, 2.46, 10.35, repro,
1996-03-04,5.10, 1.52, -13.17, 3.36, 3.08, 13.34, repro,
1996-03-05,1.58, 1.40, 19.70, 2.93, 2.53, 10.26, repro,
1996-03-06,1.34, 1.89, 7.84, 3.00, 2.57, 10.52, repro,
1996-03-07,3.44, 2.25, 19.41, 2.88, 2.42, 10.25, repro,
1996-03-08,-1.47, 0.07, 12.26, 2.88, 2.43, 10.15, repro,
1996-03-09,2.40, 2.10, 13.65, 3.37, 2.89, 13.03, repro,
1996-03-10,0.97, 2.39, -1.51, 3.22, 2.81, 11.85, repro,
1996-03-21,-12.52, 0.19, 13.88, 5.45, 6.89, 22.64, repro,
1996-03-22,1.40, 0.61, -27.23, 3.80, 3.47, 14.53, repro,
1996-03-23,1.66, 1.48, 9.76, 3.88, 3.48, 14.64, repro,
1996-03-24,3.72, -0.72, 3.02, 4.35, 4.32, 16.70, repro,
1996-04-02,-1.28, 1.51, 36.65, 3.14, 2.72, 10.47, repro,
1996-04-03,-0.18, 2.63, 26.00, 2.75, 2.38, 9.72, repro,
1996-04-04,2.69, 6.11, 39.60, 2.58, 2.20, 9.39, repro,
1996-04-05,-0.20, 3.98, 42.91, 2.96, 2.49, 10.50, repro,
1996-04-06,1.08, 5.77, 25.24, 2.73, 2.31, 9.50, repro,
1996-04-07,1.30, 2.99, 30.57, 2.76, 2.32, 9.51, repro,
1996-04-08,3.45, 3.52, 29.18, 2.71, 2.29, 9.22, repro,
1996-04-09,4.07, 3.54, 33.66, 2.75, 2.36, 9.50, repro,
1996-04-10,1.53, 3.65, 33.84, 2.79, 2.47, 9.85, repro,
1996-04-11,-1.77, 2.83, 31.75, 2.71, 2.31, 9.32, repro,
1996-04-12,-1.17, 1.76, 26.54, 2.81, 2.36, 9.79, repro,
1996-04-13,-0.52, 1.98, 30.48, 2.69, 2.26, 9.12, repro,
1996-04-14,-1.76, 0.26, 24.67, 2.74, 2.36, 9.46, repro,
1996-04-15,-3.35, 6.19, 31.78, 2.76, 2.32, 9.56, repro,
1996-04-16,-1.36, 2.66, 24.84, 2.80, 2.39, 9.78, repro,
1996-04-17,-3.66, 3.61, 15.96, 2.89, 2.45, 9.83, repro,
1996-04-18,-1.43, -0.38, 8.77, 2.96, 2.52, 10.25, repro,
1996-04-19,-2.49, 1.78, 29.70, 2.80, 2.36, 9.64, repro,
1996-04-20,-0.40, 4.22, 33.76, 2.75, 2.37, 9.54, repro,
1996-04-21,-2.50, 6.04, 46.76, 2.89, 2.40, 9.76, repro,
1996-04-22,0.97, 4.71, 33.83, 2.98, 2.48, 10.05, repro,
1996-04-23,-3.69, 114.42, -85.10, 17.97, 23.44, 51.28, repro,
1996-04-24,-1.80, 5.83, 29.77, 2.74, 2.33, 9.42, repro,
1996-04-25,0.83, 1.35, 18.71, 2.74, 2.34, 9.66, repro,
1996-04-26,0.72, 5.74, 40.15, 2.79, 2.35, 9.72, repro,
1996-04-27,0.99, 4.59, 44.73, 2.70, 2.25, 9.43, repro,
1996-04-28,-0.16, 4.91, 36.73, 2.72, 2.26, 9.32, repro,
1996-04-29,-1.67, 4.34, 23.60, 2.89, 2.46, 10.12, repro,
1996-04-30,1.12, 3.60, 26.14, 2.79, 2.37, 9.66, repro,
1996-05-01,-0.55, 3.73, 31.24, 2.78, 2.37, 9.63, repro,
1996-05-02,0.46, 5.39, 29.79, 2.85, 2.43, 10.02, repro,
1996-05-03,-0.07, 2.31, 29.47, 2.72, 2.27, 9.46, repro,
1996-05-04,-1.21, 2.37, 11.94, 2.86, 2.50, 10.17, repro,
1996-05-05,1.30, 7.84, 30.28, 2.61, 2.22, 9.47, repro,
1996-05-06,-0.39, 6.91, 27.95, 2.63, 2.26, 9.74, repro,
1996-05-07,0.52, 6.12, 39.32, 2.94, 2.38, 9.91, repro,
1996-05-08,0.26, 5.94, 23.62, 2.75, 2.33, 9.72, repro,
1996-05-09,-2.00, 7.47, 21.99, 2.85, 2.49, 10.60, repro,
1996-05-10,-0.41, 6.75, 24.46, 2.79, 2.42, 10.21, repro,
1996-05-11,-0.42, 5.32, 23.43, 2.90, 2.49, 10.09, repro,
1996-05-12,0.33, 5.37, 23.84, 3.23, 2.68, 11.32, repro,
1996-05-13,1.54, 3.66, 25.81, 2.85, 2.44, 9.98, repro,
1996-05-14,1.36, 4.08, 35.47, 2.90, 2.51, 10.22, repro,
1996-05-15,0.63, 3.34, 21.24, 2.85, 2.46, 10.02, repro,
1996-05-16,-1.92, 0.65, 0.46, 3.01, 2.68, 10.88, repro,
1996-05-17,-2.26, -1.34, 14.61, 2.87, 2.55, 10.33, repro,
1996-05-18,-2.85, -1.40, -12.18, 2.93, 2.57, 10.74, repro,
1996-05-19,1.63, -3.34, 6.86, 2.74, 2.39, 9.79, repro,
1996-05-20,1.05, 1.14, 13.71, 2.84, 2.49, 10.25, repro,
1996-05-21,1.43, -3.48, 1.49, 3.20, 3.00, 12.06, repro,
1996-05-22,-2.82, -0.31, 9.20, 3.39, 3.03, 12.32, repro,
1996-05-23,-3.25, -1.15, 14.93, 3.86, 3.38, 14.55, repro,
1996-05-24,4.78, -4.56, -10.27, 3.76, 3.59, 15.78, repro,
1996-05-25,-1.91, 2.98, 31.42, 2.81, 2.43, 10.32, repro,
1996-05-26,0.47, -1.83, 19.16, 2.94, 2.61, 10.57, repro,
1996-05-27,-1.12, -0.29, 12.04, 2.89, 2.54, 10.38, repro,
1996-05-28,-1.39, -0.07, 14.02, 2.78, 2.39, 9.86, repro,
1996-05-29,-1.50, 2.64, 16.23, 2.94, 2.61, 10.78, repro,
1996-05-30,-0.59, 0.70, 15.94, 2.86, 2.52, 10.20, repro,
1996-05-31,0.88, -0.86, 16.50, 2.89, 2.51, 10.22, repro,
1996-06-01,-0.40, -0.36, 10.77, 2.87, 2.48, 10.09, repro,
1996-06-02,-2.07, 0.47, -1.59, 2.85, 2.44, 10.12, repro,
1996-06-03,-0.04, -0.10, 16.14, 2.93, 2.49, 10.47, repro,
1996-06-04,0.98, 2.92, 13.98, 2.92, 2.54, 10.62, repro,
1996-06-05,0.31, -0.23, 33.12, 2.97, 2.64, 10.97, repro,
1996-06-06,1.01, -1.83, 4.92, 2.90, 2.50, 10.60, repro,
1996-06-07,0.27, -0.33, 29.95, 3.02, 2.51, 10.89, repro,
1996-06-08,-0.85, 1.43, 30.02, 2.79, 2.39, 10.19, repro,
1996-06-09,7.86, -15.74, 64.94, 7.00, 6.21, 29.50, repro,
1996-06-10,1.64, 0.52, 20.11, 2.90, 2.62, 10.97, repro,
1996-06-11,1.00, -2.57, 12.62, 2.99, 2.65, 11.37, repro,
1996-06-12,1.89, 1.18, 17.73, 2.93, 2.56, 10.86, repro,
1996-06-13,2.80, -0.91, 31.56, 2.84, 2.43, 10.39, repro,
1996-06-14,3.67, 1.44, 24.67, 2.92, 2.58, 10.97, repro,
1996-06-15,2.96, 0.13, 28.66, 4.23, 3.50, 18.05, repro,
1996-06-16,2.16, -3.86, 18.28, 3.53, 3.20, 13.74, repro,
1996-06-17,1.13, -1.49, 12.65, 2.95, 2.62, 10.92, repro,
1996-06-18,3.09, 0.64, 27.13, 2.89, 2.50, 10.63, repro,
1996-06-19,1.79, 3.90, 46.95, 2.94, 2.48, 10.99, repro,
1996-06-20,0.11, 3.56, 30.55, 2.84, 2.46, 10.37, repro,
1996-06-21,2.65, 2.43, 42.13, 2.85, 2.45, 10.40, repro,
1996-06-22,-4.48, -0.15, 22.98, 2.72, 2.42, 10.48, repro,
1996-06-23,-2.69, 0.50, 30.05, 2.84, 2.47, 10.43, repro,
1996-06-24,0.01, 1.71, 23.86, 2.86, 2.49, 10.47, repro,
1996-06-25,-0.69, 4.03, 30.28, 2.91, 2.52, 10.59, repro,
1996-06-26,-1.13, 3.66, 27.68, 2.92, 2.56, 10.71, repro,
1996-06-27,-2.32, 2.15, 30.59, 2.86, 2.52, 10.53, repro,
1996-06-28,-1.33, 1.16, 33.80, 2.87, 2.48, 10.45, repro,
1996-06-29,-0.80, 2.60, 25.23, 2.85, 2.48, 10.49, repro,
1996-06-30,-0.03, 3.08, 24.97, 2.94, 2.54, 10.82, repro,
1996-07-01,-0.00, 2.57, 25.55, 2.84, 2.50, 10.64, repro,
1996-07-02,0.71, 3.07, 38.11, 3.03, 2.68, 11.15, repro,
1996-07-03,-3.17, 6.17, 31.78, 3.00, 2.55, 11.10, repro,
1996-07-04,2.03, 2.53, 26.20, 2.89, 2.56, 10.94, repro,
1996-07-05,1.07, 2.78, 16.67, 2.91, 2.54, 10.68, repro,
1996-07-06,2.07, 3.99, 24.10, 2.88, 2.47, 10.35, repro,
1996-07-07,-1.32, 4.94, 40.05, 3.03, 2.54, 11.10, repro,
1996-07-08,1.73, 2.95, 23.94, 2.94, 2.68, 11.38, repro,
1996-07-09,-0.40, 3.30, 34.88, 2.91, 2.63, 11.10, repro,
1996-07-10,0.41, 4.17, 21.68, 3.06, 2.66, 11.22, repro,
1996-07-11,-0.99, 5.31, 27.11, 2.84, 2.49, 10.42, repro,
1996-07-12,0.13, 5.07, 29.21, 2.85, 2.55, 10.46, repro,
1996-07-13,0.43, 4.69, 37.45, 2.86, 2.53, 10.88, repro,
1996-07-14,0.58, 6.46, 39.88, 2.82, 2.45, 10.43, repro,
1996-07-15,-1.47, 4.27, 28.34, 2.94, 2.58, 11.12, repro,
1996-07-16,0.17, 1.02, 24.21, 2.91, 2.53, 10.91, repro,
1996-07-17,-1.72, 1.78, 33.61, 3.53, 3.18, 13.39, repro,
1996-07-18,42.35, -175.17, 284.01, 6.07, 4.32, 22.99, repro,
1996-07-19,19.99, -242.26, 211.34, 6.41, 6.46, 22.59, repro,
1996-07-20,46.11, -185.74, 307.75, 6.46, 6.05, 25.85, repro,
1996-07-21,43.75, -231.70, 288.50, 6.18, 4.78, 24.69, repro,
1996-07-22,28.36, -189.05, 328.72, 6.54, 5.02, 25.06, repro,
1996-07-23,3.72, -35.79, 61.34, 3.81, 3.35, 14.98, repro,
1996-07-24,-3.62, 0.55, 19.20, 2.66, 2.28, 10.30, repro,
1996-07-25,-3.52, -1.93, 9.98, 2.60, 2.31, 10.10, repro,
1996-07-26,-5.00, -0.86, 23.61, 2.65, 2.34, 10.32, repro,
1996-07-27,-3.13, -0.89, 17.92, 2.58, 2.26, 10.11, repro,
1996-07-28,-1.16, -2.66, 16.35, 2.60, 2.30, 10.11, repro,
1996-07-29,-1.79, -2.59, 7.21, 2.62, 2.35, 10.29, repro,
1996-07-30,0.59, -3.85, 18.46, 2.62, 2.32, 10.27, repro,
1996-07-31,-3.38, -3.62, 10.40, 2.64, 2.34, 10.34, repro,
1996-08-01,-4.79, -3.29, -0.93, 2.65, 2.37, 10.75, repro,
1996-08-02,-2.65, -2.58, 19.36, 2.97, 2.61, 11.54, repro,
1996-08-03,-2.32, -2.32, 19.67, 2.50, 2.23, 9.71, repro,
1996-08-04,-3.34, -0.61, 24.62, 2.54, 2.24, 9.83, repro,
1996-08-05,-3.48, -1.96, 19.89, 2.54, 2.29, 10.22, repro,
1996-08-06,-6.90, 0.31, 10.17, 3.14, 2.71, 12.59, repro,
1996-08-07,-2.96, -1.72, 21.10, 2.60, 2.27, 10.11, repro,
1996-08-08,-0.59, -1.24, 17.90, 2.91, 2.57, 11.07, repro,
1996-08-09,1.93, -2.45, 23.08, 2.79, 2.47, 10.43, repro,
1996-08-10,1.02, -0.04, 20.82, 2.98, 2.66, 11.36, repro,
1996-08-11,-1.35, -2.81, 2.05, 2.69, 2.34, 10.04, repro,
1996-08-12,-0.57, -1.81, 25.45, 2.79, 2.36, 10.70, repro,
1996-08-13,0.38, -1.69, 33.37, 2.78, 2.44, 10.50, repro,
1996-08-14,1.53, 1.28, 34.76, 2.80, 2.30, 10.33, repro,
1996-08-15,3.93, -0.39, 24.89, 2.84, 2.39, 10.57, repro,
1996-08-16,3.60, -5.83, 16.47, 3.25, 3.00, 12.75, repro,
1996-08-17,0.80, -0.92, 31.81, 2.82, 2.40, 10.40, repro,
1996-08-18,-0.56, -0.18, 36.12, 2.87, 2.37, 10.86, repro,
1996-08-19,1.50, -0.55, 26.90, 2.96, 2.39, 11.27, repro,
1996-08-20,5.37, -3.22, 14.41, 3.11, 2.66, 12.09, repro,
1996-08-21,5.67, -1.54, -0.30, 3.79, 3.47, 16.23, repro,
1996-08-22,0.89, 1.69, 20.55, 2.72, 2.35, 10.05, repro,
1996-08-23,2.22, 1.08, 22.04, 2.83, 2.35, 10.50, repro,
1996-08-24,-0.24, 1.17, -1.14, 2.95, 2.43, 10.93, repro,
1996-08-25,3.00, 1.03, 18.69, 2.69, 2.33, 10.33, repro,
1996-08-26,4.50, 0.10, 12.01, 2.82, 2.46, 10.67, repro,
1996-08-27,2.29, 2.83, 15.88, 2.91, 2.53, 11.14, repro,
1996-08-28,2.40, 0.31, 25.03, 2.74, 2.33, 10.16, repro,
1996-08-29,3.03, -0.57, 9.29, 2.95, 2.51, 11.17, repro,
1996-08-30,1.73, 1.19, 27.58, 2.82, 2.52, 10.55, repro,
1996-08-31,2.22, 1.34, 34.20, 2.74, 2.39, 9.98, repro,
1996-09-01,7.31, -3.14, 15.99, 2.75, 2.35, 10.40, repro,
1996-09-02,3.18, 0.77, 29.35, 2.71, 2.33, 9.85, repro,
1996-09-03,3.03, -1.82, 32.45, 2.71, 2.32, 10.23, repro,
1996-09-04,1.81, 3.56, 21.76, 2.83, 2.32, 10.49, repro,
1996-09-05,9.86, -5.62, -30.18, 4.35, 4.29, 21.21, repro,
1996-09-06,3.23, -0.04, 10.53, 2.82, 2.42, 10.59, repro,
1996-09-07,4.10, -2.15, 11.59, 2.78, 2.37, 10.08, repro,
1996-09-08,2.83, 0.61, 25.92, 2.71, 2.36, 10.21, repro,
1996-09-09,3.99, -0.00, 25.73, 2.88, 2.50, 10.66, repro,
1996-09-10,5.59, 1.60, 33.55, 3.65, 3.18, 13.60, repro,
1996-09-11,7.62, 1.42, 29.48, 3.05, 2.76, 12.02, repro,
1996-09-12,3.50, -0.24, 23.87, 2.78, 2.33, 10.26, repro,
1996-09-13,4.58, 0.60, 17.56, 2.78, 2.46, 10.80, repro,
1996-09-14,3.02, -2.59, 18.70, 2.58, 2.27, 9.95, repro,
1996-09-15,4.69, 2.02, 14.72, 2.80, 2.37, 10.43, repro,
1996-09-16,0.84, -1.03, 41.86, 3.12, 2.76, 11.75, repro,
1996-09-17,0.05, 2.01, 35.47, 3.20, 2.84, 12.26, repro,
1996-09-18,0.41, -1.56, 17.80, 2.67, 2.44, 10.18, repro,
1996-09-19,-1.38, -1.17, 34.28, 2.62, 2.26, 10.13, repro,
1996-09-20,-1.50, -0.97, 44.79, 2.76, 2.40, 10.50, repro,
1996-09-21,-2.06, -0.88, 30.91, 2.61, 2.24, 9.78, repro,
1996-09-22,-3.18, 0.75, 23.31, 2.70, 2.31, 10.15, repro,
1996-09-23,-0.19, -4.74, 6.38, 3.99, 3.87, 18.81, repro,
1996-09-24,-3.11, 1.09, 37.12, 2.76, 2.32, 10.09, repro,
1996-09-25,-4.04, 0.46, 29.18, 2.54, 2.27, 9.55, repro,
1996-09-26,-3.68, -0.81, 24.91, 2.59, 2.34, 10.01, repro,
1996-09-27,-3.55, -1.46, 28.85, 2.68, 2.38, 10.51, repro,
1996-09-28,7.71, -34.35, -58.57, 16.09, 33.02, 76.14, repro,
1996-09-29,-1.28, 1.06, 30.26, 2.64, 2.30, 9.76, repro,
1996-09-30,-2.92, 2.35, 48.46, 2.64, 2.28, 9.52, repro,
1996-10-01,-1.35, -1.05, 40.28, 2.63, 2.29, 9.74, repro,
1996-10-02,-0.76, -1.39, 36.61, 2.53, 2.17, 9.22, repro,
1996-10-03,-0.31, 3.60, 37.18, 2.56, 2.25, 9.56, repro,
1996-10-04,0.54, 0.55, 33.85, 2.61, 2.34, 9.80, repro,
1996-10-05,2.44, 1.15, 25.46, 2.63, 2.28, 9.68, repro,
1996-10-06,3.53, -0.23, 19.04, 2.65, 2.30, 9.54, repro,
1996-10-07,4.12, 1.75, 20.50, 2.59, 2.21, 9.41, repro,
1996-10-08,2.92, 0.84, 25.23, 2.65, 2.22, 9.57, repro,
1996-10-09,2.42, 2.77, 22.82, 2.66, 2.28, 9.85, repro,
1996-10-10,1.62, 0.08, 21.56, 2.53, 2.16, 9.23, repro,
1996-10-11,1.48, 0.76, 23.62, 2.57, 2.23, 9.46, repro,
1996-10-12,2.31, 0.98, 23.37, 2.58, 2.19, 9.37, repro,
1996-10-13,2.02, -1.48, 20.03, 3.08, 2.63, 11.48, repro,
1996-10-14,35.37, -42.07, -40.24, 26.56, 53.90, 88.56, repro,
1996-10-15,2.52, 1.30, 26.40, 2.67, 2.37, 9.99, repro,
1996-10-16,-0.90, -0.65, 9.31, 3.30, 2.89, 12.45, repro,
1996-10-19,-0.20, -1.51, 30.00, 2.56, 2.23, 9.67, repro,
1996-10-20,-1.46, -1.89, 31.15, 2.44, 2.10, 9.14, repro,
1996-10-21,3.01, -3.04, 28.99, 2.58, 2.23, 9.68, repro,
1996-10-22,1.28, -1.08, 34.90, 2.56, 2.15, 9.32, repro,
1996-10-23,1.68, -2.01, 36.76, 2.57, 2.21, 9.48, repro,
1996-10-24,-1.71, -1.06, 36.78, 2.39, 2.02, 8.91, repro,
1996-10-25,3.63, -2.76, 34.53, 2.59, 2.22, 9.59, repro,
1996-10-26,3.42, -4.18, 30.34, 2.60, 2.21, 9.46, repro,
1996-10-27,2.06, 2.60, 45.29, 2.62, 2.21, 9.72, repro,
1996-10-28,1.21, -3.10, 39.30, 2.60, 2.25, 9.64, repro,
1996-10-29,-3.70, -0.03, 38.06, 2.44, 2.12, 9.36, repro,
1996-10-30,-2.45, -1.18, 36.14, 2.54, 2.14, 9.51, repro,
1996-10-31,0.46, -1.71, 35.68, 2.64, 2.23, 9.67, repro,
1996-11-01,0.71, -0.71, 24.73, 2.70, 2.40, 10.48, repro,
1996-11-02,-0.69, -2.23, 39.01, 2.74, 2.36, 10.19, repro,
1996-11-03,-3.18, 0.80, 39.41, 2.64, 2.17, 9.68, repro,
1996-11-04,-7.61, -3.10, 36.12, 2.86, 2.26, 9.87, repro,
1996-11-05,-6.59, -3.23, 42.69, 2.61, 2.21, 9.55, repro,
1996-11-06,-6.56, 0.68, 52.29, 2.78, 2.39, 10.03, repro,
1996-11-07,-5.60, -1.69, 44.29, 2.74, 2.26, 9.85, repro,
1996-11-08,-5.97, -0.06, 43.42, 2.60, 2.23, 9.62, repro,
1996-11-09,-7.58, 4.59, 52.59, 2.83, 2.42, 10.52, repro,
1996-11-10,-5.28, 1.65, 59.34, 2.71, 2.28, 9.77, repro,
1996-11-11,40.32, 24.13, -326.44, 31.09, 58.87, 194.66, repro,
1996-11-12,-1.13, -0.05, 34.59, 2.74, 2.33, 10.06, repro,
1996-11-13,-4.87, 1.25, 50.83, 2.66, 2.24, 9.79, repro,
1996-11-14,-2.12, 0.42, 44.60, 2.62, 2.23, 9.65, repro,
1996-11-15,-2.01, -0.77, 38.86, 2.74, 2.42, 10.64, repro,
1996-11-16,-6.98, 1.10, 52.01, 5.60, 5.61, 23.95, repro,
1996-11-17,-7.48, -2.77, 40.09, 3.01, 2.47, 10.92, repro,
1996-11-18,-4.96, -3.76, 26.20, 2.92, 2.46, 10.56, repro,
1996-11-19,-10.28, 0.66, 55.56, 2.86, 2.40, 10.35, repro,
1996-11-20,-2.94, -4.67, 35.34, 2.80, 2.48, 10.65, repro,
1996-11-21,-5.02, 2.19, 45.97, 2.73, 2.45, 10.33, repro,
1996-11-22,-7.30, 2.10, 62.89, 3.32, 3.06, 14.14, repro,
1996-11-23,0.15, 2.70, 24.18, 2.73, 2.41, 10.21, repro,
1996-11-24,-2.40, -1.20, 29.83, 2.84, 2.49, 10.73, repro,
1996-11-25,-54.10, -29.30, 179.32, 7.54, 6.43, 30.26, repro,
1996-11-26,-5.69, -9.39, 45.46, 6.42, 5.65, 25.12, repro,
1996-11-27,-17.03, -1.44, 37.95, 2.64, 2.24, 9.80, repro,
1996-11-28,-8.16, -0.30, 5.57, 2.75, 2.34, 10.22, repro,
1996-11-29,-5.57, -2.16, 21.72, 2.78, 2.39, 10.17, repro,
1996-11-30,-6.66, -0.28, 30.55, 2.76, 2.26, 10.26, repro,
1996-12-01,-3.51, -1.98, 15.38, 2.86, 2.37, 10.25, repro,
1996-12-02,-7.00, -4.45, 18.94, 2.69, 2.23, 9.87, repro,
1996-12-03,-7.79, -4.11, 13.29, 2.74, 2.32, 10.28, repro,
1996-12-04,-11.04, -1.90, 18.38, 2.66, 2.20, 9.61, repro,
1996-12-05,-9.01, -4.29, 26.37, 2.89, 2.29, 10.22, repro,
1996-12-06,-2.40, -2.70, 21.53, 3.07, 2.43, 10.88, repro,
1996-12-07,-6.39, -1.51, 19.47, 2.76, 2.27, 9.91, repro,
1996-12-08,-5.40, -1.01, 37.27, 2.81, 2.30, 9.88, repro,
1996-12-09,-4.59, -0.78, 31.81, 2.90, 2.36, 10.70, repro,
1996-12-10,-2.92, -5.57, -2.13, 2.94, 2.32, 10.37, repro,
1996-12-11,-4.81, -4.56, 11.09, 2.69, 2.24, 9.69, repro,
1996-12-12,3.36, -34.45, -1.26, 20.00, 47.05, 65.24, repro,
1996-12-13,-1.85, -4.77, -12.89, 3.59, 3.01, 14.26, repro,
1996-12-14,-7.84, -1.28, -6.52, 2.65, 2.18, 9.53, repro,
1996-12-15,-7.83, -2.28, -4.91, 2.63, 2.16, 9.43, repro,
1996-12-16,-4.40, -1.22, 2.39, 2.50, 2.05, 8.97, repro,
1996-12-17,-2.90, -3.80, -12.09, 2.88, 2.21, 9.96, repro,
1996-12-18,-2.56, -1.77, 4.74, 2.57, 2.09, 9.11, repro,
1996-12-19,-3.30, -1.38, 17.43, 2.62, 2.16, 9.35, repro,
1996-12-20,-6.28, -2.98, -0.55, 2.77, 2.27, 10.00, repro,
1996-12-21,-4.52, -2.17, -3.61, 2.68, 2.21, 9.69, repro,
1996-12-22,-4.24, -3.36, -14.42, 2.66, 2.27, 9.84, repro,
1996-12-23,-3.81, -2.83, -3.39, 2.66, 2.17, 9.55, repro,
1996-12-24,-3.28, -1.80, 3.31, 2.68, 2.12, 9.59, repro,
1996-12-25,-1.92, -1.34, 9.99, 2.67, 2.16, 9.59, repro,
1996-12-26,-4.87, -1.69, 4.40, 2.64, 2.16, 9.44, repro,
1996-12-27,0.06, -2.16, 9.33, 2.81, 2.27, 10.14, repro,
1996-12-28,-0.86, -2.71, 10.23, 2.66, 2.15, 9.53, repro,
1996-12-29,-1.51, -0.74, 12.16, 2.62, 2.14, 9.50, repro,
1996-12-30,-5.78, -1.12, -8.83, 2.76, 2.34, 10.20, repro,
1996-12-31,-4.06, -0.93, 6.71, 2.83, 2.45, 10.78, repro,
1997-01-01,-2.83, -3.45, -5.02, 2.62, 2.30, 9.77, repro,
1997-01-02,-5.78, -3.70, -7.09, 2.67, 2.36, 10.04, repro,
1997-01-03,-4.31, -3.49, -1.18, 2.70, 2.34, 9.99, repro,
1997-01-04,-6.30, -3.48, -15.46, 2.62, 2.28, 9.73, repro,
1997-01-05,-9.13, -1.91, -24.64, 2.67, 2.28, 9.80, repro,
1997-01-06,-3.99, -3.59, -3.70, 2.79, 2.39, 10.23, repro,
1997-01-07,-3.26, -2.90, -6.73, 2.58, 2.17, 9.61, repro,
1997-01-08,-4.23, -4.34, -5.59, 2.53, 2.17, 9.53, repro,
1997-01-09,-5.60, -5.91, 10.42, 2.63, 2.21, 9.77, repro,
1997-01-10,-4.92, -1.63, -1.56, 2.49, 2.10, 9.34, repro,
1997-01-11,-6.30, -3.98, 2.63, 2.51, 2.13, 9.41, repro,
1997-01-12,-3.09, -2.54, -8.08, 2.57, 2.17, 9.64, repro,
1997-01-13,-5.58, -2.59, -5.29, 2.53, 2.15, 9.44, repro,
1997-01-14,-6.01, -1.26, 2.87, 2.48, 2.15, 9.36, repro,
1997-01-15,-6.09, -1.66, -16.32, 2.56, 2.23, 9.86, repro,
1997-01-16,-4.84, -2.77, -18.71, 2.67, 2.32, 10.24, repro,
1997-01-17,-8.49, -0.89, -14.18, 2.90, 2.47, 10.88, repro,
1997-01-18,-7.38, -4.42, -18.44, 2.71, 2.36, 10.20, repro,
1997-01-19,-5.25, -1.45, -2.61, 2.59, 2.23, 9.67, repro,
1997-01-20,-138.04, -135.63, 526.01, 171.43, 229.90, 437.34, repro,
1997-01-21,-3.75, -2.42, -23.11, 2.56, 2.27, 9.98, repro,
1997-01-22,-5.10, -0.35, -14.66, 2.72, 2.28, 10.18, repro,
1997-01-23,-3.77, -2.20, -24.63, 2.61, 2.30, 9.96, repro,
1997-01-24,-8.36, -3.90, 2.37, 2.65, 2.31, 9.76, repro,
1997-01-25,-5.05, -3.47, -0.89, 2.52, 2.23, 9.76, repro,
1997-01-26,-7.13, -3.82, -27.04, 2.69, 2.32, 10.40, repro,
1997-01-27,-6.54, -3.94, -39.52, 2.89, 2.36, 10.67, repro,
1997-01-28,-8.04, -1.29, -22.72, 2.47, 2.08, 9.31, repro,
1997-01-29,-10.06, -2.59, -29.90, 2.52, 2.15, 9.51, repro,
1997-01-30,-8.35, -1.92, -20.20, 2.53, 2.13, 9.40, repro,
1997-01-31,-6.62, -1.38, -6.92, 2.62, 2.24, 9.75, repro,
1997-02-01,-7.23, -0.94, -14.96, 2.54, 2.17, 9.60, repro,
1997-02-02,-1.90, -0.88, -12.44, 2.86, 2.41, 10.89, repro,
1997-02-03,-6.02, -1.39, -4.36, 3.10, 2.62, 10.93, repro,
1997-02-04,-3.86, -3.26, 1.10, 3.26, 2.65, 11.73, repro,
1997-02-05,-3.95, -4.21, -0.32, 3.09, 2.53, 10.82, repro,
1997-02-06,-0.55, -4.39, -0.90, 3.05, 2.57, 10.95, repro,
1997-02-07,-1.64, -3.30, -1.26, 3.01, 2.52, 10.71, repro,
1997-02-08,-0.78, -3.27, 3.00, 2.97, 2.52, 10.68, repro,
1997-02-09,2.61, -1.56, -2.46, 2.86, 2.38, 10.97, repro,
1997-02-10,1.85, -3.03, 8.40, 3.20, 2.59, 11.47, repro,
1997-02-11,1.28, -5.54, 1.32, 3.07, 2.51, 10.79, repro,
1997-02-12,-1.26, -2.21, 16.57, 2.91, 2.40, 10.38, repro,
1997-02-13,-0.28, -3.14, 5.58, 3.00, 2.47, 10.57, repro,
1997-02-14,-1.12, -2.84, -16.10, 3.03, 2.56, 14.41, repro,
1997-02-15,-2.91, -4.28, -31.87, 3.36, 2.94, 14.30, repro,
1997-02-16,2.39, -2.25, 3.51, 2.92, 2.45, 12.47, repro,
1997-02-17,-0.68, -3.23, -1.93, 2.99, 2.56, 12.94, repro,
1997-02-18,-2.10, -0.42, -14.41, 3.00, 2.44, 13.95, repro,
1997-02-19,-3.81, -1.20, -15.54, 3.11, 2.54, 13.31, repro,
1997-02-20,-3.66, -1.84, -3.37, 3.01, 2.52, 12.82, repro,
1997-02-21,-2.43, -0.55, -8.56, 2.99, 2.52, 12.85, repro,
1997-03-09,-3.90, -0.71, -2.49, 2.70, 2.29, 10.07, repro,
1997-03-24,1.25, 1.67, 20.60, 2.63, 2.22, 10.33, repro,
1997-03-25,-3.41, 2.25, 12.64, 2.48, 2.17, 9.47, repro,
1997-03-26,-2.78, 1.23, 2.16, 2.57, 2.16, 9.88, repro,
1997-03-27,-3.40, 2.20, 15.55, 2.60, 2.18, 9.60, repro,
1997-04-06,0.75, -2.37, 5.57, 2.61, 2.16, 9.60, repro,
1997-04-08,3.51, -0.77, 10.03, 2.68, 2.24, 9.81, repro,
1997-04-10,0.17, -2.72, 7.72, 2.56, 2.13, 9.20, repro,
1997-04-14,-0.16, -0.20, 1.70, 2.46, 2.05, 9.08, repro,
1997-04-15,2.19, -1.66, 21.86, 2.70, 2.30, 9.80, repro,
1997-04-16,-1.82, -1.74, 5.04, 2.61, 2.21, 9.55, repro,
1997-04-20,-1.62, -4.03, 2.22, 2.53, 2.17, 9.51, repro,
1997-04-22,-0.35, -4.91, -6.65, 2.56, 2.18, 9.65, repro,
1997-04-23,2.63, -9.31, -21.50, 2.61, 2.16, 9.59, repro,
1997-04-24,-1.56, -2.21, 0.22, 2.52, 2.08, 9.23, repro,
1997-04-25,-0.41, -1.83, 12.44, 2.67, 2.27, 9.85, repro,